[[{"header":{"parameterUnit":"m.s-1","parameterCategory":1,"la1":30.2991,"la2":30.254,"lo1":-89.0895,"lo2":-89.0444,"dy":0.0017,"dx":0.0017,"nx":28,"ny":28,"refTime":"2023-08-21T21:00:00:Z","depth":0,"parameterNumber":2,"parameterNumberName":"U-component_of_WINDS"},"data":[0,0,0,0,0,0,0,0,0,0,0,0,0,0,0,0,0,0,0,0,0,0,0,0,0,0,0,0,0,0,0,0,0,0,0,0,0,0,0,0,0,0,0,0,0,0,0,0,0,0,0,0,0,0,0,0,0,0,-2.2032,-2.2031,0,-2.1952,-2.1951,-2.195,-2.1867,-2.1866,-2.1865,-2.1864,-2.1782,-2.1781,-2.178,0,0,0,0,0,0,0,0,0,0,0,0,0,-2.2112,-2.2111,-2.2032,-2.2031,-2.203,-2.1952,-2.1951,-2.195,-2.1867,-2.1866,-2.1865,-2.1863,-2.1782,-2.1781,-2.178,0,0,0,0,0,0,0,0,0,0,0,0,0,-2.206,-2.2111,-2.2032,-2.1979,-2.1974,-2.1953,-2.1951,-2.195,-2.1868,-2.1866,-2.1864,-2.1863,-2.1783,-2.1781,-2.1779,-2.1803,0,0,-2.1774,-2.1773,0,0,0,0,0,0,0,0,-2.2063,-2.2057,-2.1988,-2.1983,-2.1977,-2.1918,-2.1949,-2.1901,-2.1868,-2.1908,-2.1864,-2.1862,-2.1828,-2.1823,-2.1812,-2.18,-2.1796,-2.1774,-2.1773,-2.1772,-2.1772,0,0,0,0,0,0,0,-2.2067,-2.206,-2.2,-2.1987,-2.198,-2.196,-2.195,-2.194,-2.1879,-2.1904,-2.1898,-2.189,-2.1825,-2.1814,-2.1809,-2.1795,-2.1774,-2.1773,-2.1772,-2.1771,-2.18,-2.1801,0,0,0,0,0,0,-2.2078,-2.2063,-2.2003,-2.1998,-2.2016,-2.196,-2.1949,-2.1939,-2.1879,-2.1868,-2.1892,-2.1886,-2.1817,-2.1811,-2.1806,-2.1831,-2.1772,-2.1771,-2.177,-2.1798,-2.18,-2.1802,0,0,0,0,0,0,-2.208,-2.2074,-2.2006,-2.2029,-2.2019,-2.196,-2.1949,-2.1938,-2.1926,-2.1869,-2.1858,-2.1891,-2.1816,-2.1808,-2.1805,-2.1827,-2.177,-2.1768,-2.1796,-2.1799,-2.1801,-2.1882,0,0,0,0,0,0,-2.2083,-2.2075,-2.2083,-2.203,-2.2018,-2.2007,-2.195,-2.1938,-2.1924,-2.1916,-2.1865,-2.1855,-2.1814,-2.1808,-2.1803,-2.1824,-2.1767,-2.1794,-2.1797,-2.18,-2.1877,-2.1887,-2.1895,0,0,0,0,0,-2.2086,-2.2109,-2.2084,-2.2077,-2.2027,-2.2008,-2.2001,-2.1953,-2.1926,-2.1934,-2.1897,-2.1857,-2.1825,-2.1808,-2.1802,-2.1823,-2.1792,-2.1796,-2.18,-2.1872,-2.1885,-2.1895,0,0,0,0,0,0,-2.2166,-2.2101,-2.2073,-2.2079,-2.205,-2.1994,-2.2003,-2.1967,-2.1945,-2.1939,-2.188,-2.1869,-2.1873,-2.1847,-2.1829,-2.1843,-2.1803,-2.1806,-2.186,-2.1871,-2.188,-2.1887,-2.1766,0,0,0,0,0,-2.2185,-2.2175,-2.2118,-2.2129,-2.2116,-2.2062,-2.2052,-2.2017,-2.1985,-2.1972,-2.1935,-2.1904,-2.1888,-2.1878,-2.1859,-2.1872,-2.1861,-2.1883,-2.1893,-2.1901,-2.1904,-2.191,-2.192,-2.1815,-2.1815,-2.1815,0,0,-2.2222,-2.2186,-2.2183,-2.2144,-2.2117,-2.2109,-2.2052,-2.2045,-2.2038,-2.197,-2.1965,-2.1937,-2.19,-2.1905,-2.1906,-2.1884,-2.1931,-2.1906,-2.1912,-2.1911,-2.1915,-2.1926,-2.1934,-2.1818,-2.1817,-2.1817,0,0,-2.2287,-2.2258,-2.2264,-2.2239,-2.22,-2.2164,-2.2166,-2.2115,-2.2095,-2.2089,-2.2038,-2.2029,-2.2001,-2.1976,-2.196,-2.2017,-2.198,-2.2013,-2.2061,-2.2068,-2.2076,-2.2083,-2.2105,-2.2113,-2.2016,-2.2016,-2.2016,0,-2.2339,-2.2324,-2.2272,-2.2268,-2.2253,-2.2192,-2.2198,-2.2176,-2.2133,-2.2124,-2.21,-2.2065,-2.2035,-2.2034,-2.2048,-2.2037,-2.2038,-2.2018,-2.2079,-2.2086,-2.2092,-2.2112,-2.212,-2.2021,-2.202,-2.202,-2.2019,0,-2.2391,-2.2381,-2.2391,-2.2351,-2.2337,-2.2338,-2.2287,-2.2278,-2.2245,-2.2212,-2.2208,-2.217,-2.2143,-2.214,-2.2107,-2.2135,-2.2123,-2.209,-2.2049,-2.2107,-2.2125,-2.2132,-2.2027,-2.2025,-2.2024,-2.2023,0,0,-2.2503,-2.2436,-2.244,-2.2422,-2.2375,-2.2366,-2.2365,-2.2339,-2.2334,-2.2306,-2.2304,-2.2282,-2.2252,-2.2234,-2.2197,-2.2203,-2.2252,-2.2169,-2.2168,-2.2187,-2.2282,-2.2308,-2.2318,-2.2227,-2.2228,-2.2229,-2.2286,0,-2.2561,-2.2555,-2.2509,-2.2517,-2.2508,-2.245,-2.2449,-2.242,-2.239,-2.2377,-2.2343,-2.2329,-2.2289,-2.2278,-2.2282,-2.2246,-2.2271,-2.2241,-2.2225,-2.2225,-2.2238,-2.2327,-2.2354,-2.241,-2.2292,-2.2293,-2.2294,0,-2.2627,-2.2604,-2.2612,-2.2565,-2.2559,-2.256,-2.2533,-2.2522,-2.2488,-2.2465,-2.2446,-2.2405,-2.2401,-2.2361,-2.2355,-2.2336,-2.2327,-2.2308,-2.2309,-2.2307,-2.2264,-2.2328,-2.2426,-2.2435,-2.2304,-2.2303,-2.2303,0,-2.271,-2.2681,-2.2682,-2.2668,-2.2613,-2.2615,-2.2592,-2.2556,-2.2544,-2.2521,-2.2512,-2.2489,-2.2476,-2.2459,-2.2413,-2.2388,-2.2413,-2.2369,-2.2394,-2.2396,-2.2403,-2.2403,-2.2502,-2.2395,-2.2395,-2.2395,-2.2395,0,-2.278,-2.2787,-2.2719,-2.272,-2.2727,-2.2673,-2.2681,-2.2652,-2.2621,-2.2616,-2.2564,-2.256,-2.2499,-2.2488,-2.2453,-2.2454,-2.2448,-2.243,-2.2421,-2.2436,-2.2438,-2.2429,-2.2425,-2.2397,-2.2397,-2.2396,-2.2396,0,-2.2875,-2.2829,-2.2827,-2.2775,-2.2763,-2.277,-2.2726,-2.2725,-2.2691,-2.2685,-2.268,-2.2627,-2.2612,-2.2565,-2.2537,-2.2513,-2.2525,-2.2507,-2.2537,-2.2531,-2.256,-2.2559,-2.2658,-2.2669,-2.2554,-2.2555,-2.2556,0,-2.2923,-2.2927,-2.2876,-2.2869,-2.2849,-2.2838,-2.2825,-2.2773,-2.2762,-2.2724,-2.2728,-2.2708,-2.269,-2.2669,-2.2628,-2.2607,-2.2588,-2.2624,-2.2584,-2.26,-2.259,-2.2591,-2.2592,-2.2633,-2.2635,-2.2636,-2.2637,0,-2.3013,-2.2991,-2.2975,-2.2952,-2.2939,-2.2918,-2.2894,-2.2891,-2.2832,-2.2823,-2.2807,-2.2793,-2.2765,-2.2747,-2.272,-2.2696,-2.2658,-2.265,-2.2655,-2.267,-2.2689,-2.2681,-2.2562,-2.2648,-2.2647,-2.2646,-2.2645,-2.2645,-2.3087,-2.3088,-2.3053,-2.3038,-2.3015,-2.2994,-2.299,-2.2957,-2.2942,-2.2916,-2.2886,-2.2874,-2.284,-2.28,-2.2779,-2.2769,-2.2748,-2.2755,-2.2757,-2.276,-2.2768,-2.269,-2.2764,-2.2763,-2.2763,-2.2762,-2.2762,0,-2.3176,-2.3151,-2.3137,-2.3106,-2.3094,-2.3058,-2.303,-2.3022,-2.3013,-2.2985,-2.2968,-2.295,-2.2933,-2.2891,-2.2869,-2.2869,-2.2851,-2.2865,-2.2866,-2.2861,-2.2787,-2.2785,-2.2881,-2.2881,-2.2881,-2.2881,-2.2881,-2.2881,-2.3221,-2.3222,-2.3196,-2.3186,-2.316,-2.3148,-2.3135,-2.3116,-2.3094,-2.3076,-2.3062,-2.3034,-2.3001,-2.2977,-2.2959,-2.2947,-2.2942,-2.2963,-2.2946,-2.2877,-2.2866,-2.2855,-2.2854,-2.2962,-2.2962,-2.3021,-2.3021,-2.3022]},{"header":{"parameterUnit":"m.s-1","parameterCategory":1,"la1":30.2991,"la2":30.254,"lo1":-89.0895,"lo2":-89.0444,"dy":0.0017,"dx":0.0017,"nx":28,"ny":28,"refTime":"2023-08-21T21:00:00:Z","depth":0,"parameterNumber":3,"parameterNumberName":"V-component_of_WINDS"},"data":[0,0,0,0,0,0,0,0,0,0,0,0,0,0,0,0,0,0,0,0,0,0,0,0,0,0,0,0,0,0,0,0,0,0,0,0,0,0,0,0,0,0,0,0,0,0,0,0,0,0,0,0,0,0,0,0,0,0,-1.2553,-1.2554,0,-1.2613,-1.2613,-1.2614,-1.2586,-1.2584,-1.2583,-1.2581,-1.2643,-1.2646,-1.2649,0,0,0,0,0,0,0,0,0,0,0,0,0,-1.2413,-1.2416,-1.2553,-1.2554,-1.2554,-1.2613,-1.2613,-1.2614,-1.2586,-1.2584,-1.2582,-1.2581,-1.2642,-1.2645,-1.2649,0,0,0,0,0,0,0,0,0,0,0,0,0,-1.2474,-1.2417,-1.2553,-1.2547,-1.2547,-1.2613,-1.2614,-1.2615,-1.2586,-1.2584,-1.2582,-1.258,-1.2641,-1.2645,-1.2649,-1.2723,0,0,-1.2663,-1.2665,0,0,0,0,0,0,0,0,-1.247,-1.2479,-1.2547,-1.2548,-1.2548,-1.2589,-1.2587,-1.2651,-1.2587,-1.2572,-1.2581,-1.2579,-1.2627,-1.2632,-1.2649,-1.2726,-1.2729,-1.2664,-1.2667,-1.2669,-1.267,0,0,0,0,0,0,0,-1.2466,-1.2476,-1.2577,-1.2548,-1.2549,-1.2542,-1.2548,-1.2599,-1.2611,-1.2573,-1.2571,-1.2578,-1.2627,-1.2644,-1.265,-1.273,-1.2664,-1.2668,-1.2671,-1.2672,-1.287,-1.2873,0,0,0,0,0,0,-1.2462,-1.2473,-1.2575,-1.2578,-1.2503,-1.2546,-1.2553,-1.2578,-1.2611,-1.2613,-1.258,-1.2577,-1.2638,-1.2645,-1.2652,-1.2741,-1.2669,-1.2673,-1.2676,-1.2868,-1.2871,-1.2874,0,0,0,0,0,0,-1.2459,-1.2472,-1.2572,-1.2525,-1.2537,-1.2551,-1.258,-1.2581,-1.2599,-1.2616,-1.2618,-1.2596,-1.2636,-1.2645,-1.2706,-1.2742,-1.2675,-1.2679,-1.2865,-1.2869,-1.2872,-1.2919,0,0,0,0,0,0,-1.2455,-1.2471,-1.2499,-1.2526,-1.254,-1.2626,-1.2582,-1.2584,-1.2607,-1.2603,-1.2632,-1.2634,-1.2635,-1.2699,-1.271,-1.2747,-1.2683,-1.2862,-1.2867,-1.2871,-1.2914,-1.2924,-1.2932,0,0,0,0,0,-1.2451,-1.251,-1.2501,-1.2513,-1.2576,-1.2628,-1.2636,-1.2635,-1.261,-1.2638,-1.2649,-1.2633,-1.2736,-1.2705,-1.2718,-1.2757,-1.2859,-1.2865,-1.2871,-1.291,-1.2922,-1.2932,0,0,0,0,0,0,-1.2488,-1.2514,-1.2504,-1.2574,-1.2599,-1.2623,-1.2659,-1.2648,-1.2681,-1.2676,-1.2673,-1.268,-1.2743,-1.2755,-1.2721,-1.283,-1.2794,-1.2802,-1.2819,-1.2831,-1.2839,-1.2836,-1.2687,0,0,0,0,0,-1.2504,-1.2544,-1.2564,-1.2624,-1.2637,-1.2646,-1.2669,-1.2666,-1.2692,-1.2702,-1.2718,-1.2743,-1.2781,-1.2806,-1.2842,-1.2915,-1.2921,-1.2948,-1.2957,-1.2964,-1.2972,-1.3011,-1.3023,-1.2892,-1.2892,-1.2892,0,0,-1.2539,-1.2558,-1.2583,-1.2632,-1.2651,-1.2693,-1.2655,-1.2701,-1.2731,-1.2709,-1.2767,-1.2779,-1.2807,-1.2874,-1.2904,-1.2887,-1.3009,-1.2971,-1.2977,-1.2981,-1.3018,-1.303,-1.3041,-1.2896,-1.2895,-1.2895,0,0,-1.2623,-1.2641,-1.2693,-1.2712,-1.2741,-1.2746,-1.2759,-1.2784,-1.2792,-1.285,-1.2834,-1.2869,-1.2935,-1.2956,-1.2975,-1.3065,-1.3051,-1.3076,-1.3124,-1.3162,-1.3172,-1.3181,-1.3214,-1.3225,-1.3084,-1.3084,-1.3084,0,-1.2662,-1.2724,-1.2721,-1.2767,-1.2789,-1.277,-1.2823,-1.2841,-1.2881,-1.2896,-1.2876,-1.2957,-1.2975,-1.3046,-1.3068,-1.3084,-1.3098,-1.3074,-1.3171,-1.318,-1.3188,-1.3219,-1.3231,-1.3087,-1.3086,-1.3086,-1.3086,0,-1.277,-1.2813,-1.2851,-1.289,-1.2916,-1.2965,-1.2969,-1.2996,-1.299,-1.2997,-1.3056,-1.3076,-1.3116,-1.3132,-1.3127,-1.3203,-1.3191,-1.3171,-1.3135,-1.3204,-1.3233,-1.3245,-1.3091,-1.309,-1.3089,-1.3088,0,0,-1.2881,-1.2916,-1.2931,-1.2947,-1.2977,-1.301,-1.3058,-1.3096,-1.3119,-1.3146,-1.3187,-1.3242,-1.3223,-1.3244,-1.3241,-1.3275,-1.3345,-1.325,-1.3251,-1.3268,-1.3429,-1.3445,-1.3458,-1.3335,-1.3337,-1.3339,-1.3427,0,-1.2968,-1.3052,-1.305,-1.3128,-1.3168,-1.3149,-1.3191,-1.3213,-1.3221,-1.3255,-1.3263,-1.3302,-1.3274,-1.3287,-1.3319,-1.333,-1.3377,-1.3323,-1.3373,-1.3375,-1.3368,-1.3474,-1.3491,-1.3572,-1.3438,-1.344,-1.3441,0,-1.3081,-1.3112,-1.3194,-1.3217,-1.3233,-1.3271,-1.3305,-1.3338,-1.3363,-1.3366,-1.339,-1.3381,-1.3429,-1.339,-1.3456,-1.3419,-1.3439,-1.3447,-1.345,-1.3456,-1.3413,-1.3483,-1.3598,-1.3611,-1.3459,-1.3458,-1.3456,0,-1.3154,-1.3216,-1.3273,-1.3288,-1.3316,-1.3343,-1.3356,-1.3379,-1.3401,-1.3431,-1.3446,-1.3481,-1.35,-1.3527,-1.3528,-1.35,-1.3595,-1.3556,-1.3599,-1.3599,-1.3621,-1.362,-1.3742,-1.3632,-1.3632,-1.3632,-1.3631,0,-1.3252,-1.3303,-1.3306,-1.3342,-1.3398,-1.3394,-1.345,-1.346,-1.348,-1.3517,-1.3502,-1.3537,-1.3535,-1.357,-1.3571,-1.3625,-1.3634,-1.3638,-1.3638,-1.364,-1.364,-1.3654,-1.3649,-1.3635,-1.3634,-1.3634,-1.3633,0,-1.3344,-1.3348,-1.3409,-1.3431,-1.3437,-1.3478,-1.3496,-1.353,-1.3535,-1.3581,-1.3592,-1.3601,-1.3641,-1.3644,-1.369,-1.3691,-1.3757,-1.375,-1.3749,-1.3748,-1.379,-1.3787,-1.3927,-1.3946,-1.3823,-1.3824,-1.3825,0,-1.3407,-1.3446,-1.3471,-1.3495,-1.3509,-1.3547,-1.357,-1.3568,-1.3592,-1.3622,-1.3652,-1.3691,-1.3722,-1.3786,-1.3797,-1.3832,-1.3826,-1.3873,-1.3832,-1.3832,-1.3828,-1.3826,-1.383,-1.3882,-1.3883,-1.3884,-1.3885,0,-1.3518,-1.3518,-1.3552,-1.3586,-1.3614,-1.3641,-1.3666,-1.3686,-1.3686,-1.3714,-1.3755,-1.3779,-1.3826,-1.3865,-1.3899,-1.3912,-1.3899,-1.3897,-1.3909,-1.3913,-1.3911,-1.3913,-1.3772,-1.3895,-1.3894,-1.3893,-1.3893,-1.3892,-1.3598,-1.3631,-1.3654,-1.3692,-1.3711,-1.3734,-1.3766,-1.3775,-1.3809,-1.3848,-1.3844,-1.3889,-1.3911,-1.3956,-1.3971,-1.4006,-1.399,-1.4007,-1.4012,-1.4016,-1.4021,-1.3904,-1.4012,-1.4012,-1.4012,-1.4011,-1.4011,0,-1.3708,-1.3722,-1.3757,-1.3792,-1.3822,-1.3806,-1.3833,-1.3859,-1.3899,-1.3921,-1.3951,-1.3998,-1.4035,-1.4047,-1.4083,-1.4108,-1.4103,-1.4118,-1.4117,-1.412,-1.4033,-1.402,-1.4121,-1.4121,-1.4121,-1.4121,-1.4121,-1.4121,-1.377,-1.3825,-1.3828,-1.3892,-1.3905,-1.3949,-1.3966,-1.3987,-1.4005,-1.4057,-1.4088,-1.4096,-1.4114,-1.415,-1.4183,-1.4186,-1.42,-1.4218,-1.4218,-1.4137,-1.4126,-1.4115,-1.4103,-1.4221,-1.4221,-1.4302,-1.4303,-1.4303]}]]